Location: Moscow
(55.7500°N, 37.5830°E)
Time: 07:25:07
(UTC+03:00)

Transit 2A - Pass Details

Date: 06 December 2021
Orbit: 591 x 967 km, 66.7° (Epoch: 17 January)

Event Time Altitude Azimuth Distance (km) Brightness Sun altitude
Exits shadow 05:51:17 25° 333° (NNW) 1,851 7.6 -22.5°
Maximum altitude 05:54:11 37° 19° (NNE) 1,478 7.5 -22.1°
Drops below altitude 10° 06:00:02 10° 85° (E) 2,698 9.9 -21.3°
Sets 06:02:48 0° 94° (E) 3,619 11.0 -20.9°
